Weather History for Dodge City, KS

Change the Weather History Date:

Monday, December 31, 2012

  Actual Average Record
Temperature  
Mean Temperature 22 °F -  
Max Temperature 30 °F 36 °F 67 °F (1951)
Min Temperature 15 °F 15 °F -8 °F (1884)
Degree Days  
Heating Degree Days 42    
Moisture  
Dew Point 21 °F    
Average Humidity 87    
Maximum Humidity 93    
Minimum Humidity 73    
Precipitation  
Precipitation 0.59 in - - ()
Sea Level Pressure  
Sea Level Pressure 30.01 in    
Wind  
Wind Speed 10 mph (NNE)    
Max Wind Speed 21 mph    
Max Gust Speed -    
Visibility 2 miles    
Events Fog , Snow    
Averages and records for this station are not official NWS values.
T = Trace of Precipitation, MM = Missing Value Source: NWS Daily Summary

Daily Weather History Graph

Daily Weather History Graph

Search for Another Location

Airport:

Trip Planner

Search our weather history database for the weather conditions in past years. The results will help you decide how hot, cold, wet, or windy it might be!

Date:

Astronomy

Dec. 31, 2012 Rise Set
Actual Time 7:55 AM CST 5:31 PM CST
Civil Twilight 7:25 AM CST 6:00 PM CST
Nautical Twilight 6:53 AM CST 6:33 PM CST
Astronomical Twilight 6:21 AM CST 7:05 PM CST
Moon 8:59 PM CST (12/31) 9:41 AM CST (12/31)
Length of Visible Light 10h 34m
Length of Day
9h 36m
Waning Gibbous, 90% of the Moon is Illuminated
Dec 31
Waning Gibbous
Jan 4
Last Quarter
Jan 11
New
Jan 18
First Quarter
Jan 26
Full

Hourly Weather History & Observations

Time (CST) Temp. Windchill Dew Point Humidity Pressure Visibility Wind Dir Wind Speed Gust Speed Precip Events Conditions
12:52 AM 30.9 °F 20.2 °F 26.1 °F 82% 30.04 in 10.0 mi South 15.0 mph - 0.00 in   Overcast
1:52 AM 30.9 °F 22.8 °F 28.0 °F 89% 30.02 in 4.0 mi South 9.2 mph - 0.00 in Snow Light Snow
2:52 AM 30.9 °F 25.2 °F 28.0 °F 89% 30.01 in 4.0 mi South 5.8 mph - 0.01 in Snow Light Snow
3:06 AM 30.2 °F - 28.4 °F 93% 29.99 in 2.5 mi Calm Calm - 0.01 in Snow Light Snow
3:15 AM 30.2 °F - 28.4 °F 93% 29.99 in 1.8 mi Calm Calm - 0.01 in Snow Light Snow
3:27 AM 30.2 °F 24.3 °F 28.4 °F 93% 30.00 in 2.0 mi SSE 5.8 mph - 0.02 in Snow Light Snow
3:35 AM 30.2 °F 26.7 °F 28.4 °F 93% 29.98 in 1.5 mi East 3.5 mph - 0.02 in Snow Light Snow
3:45 AM 30.2 °F 25.4 °F 28.4 °F 93% 29.98 in 1.2 mi ESE 4.6 mph - 0.03 in Snow Light Snow
3:52 AM 30.0 °F 25.2 °F 28.0 °F 92% 30.01 in 1.2 mi East 4.6 mph - 0.04 in Snow Light Snow
4:30 AM 30.2 °F - 28.4 °F 93% 29.97 in 1.5 mi Calm Calm - 0.05 in Snow Light Snow
4:52 AM 30.0 °F 26.5 °F 28.0 °F 92% 29.99 in 1.2 mi NE 3.5 mph - 0.06 in Snow Light Snow
5:01 AM 30.2 °F 25.4 °F 28.4 °F 93% 29.96 in 1.5 mi NE 4.6 mph - 0.01 in Snow Light Snow
5:10 AM 30.2 °F 26.7 °F 28.4 °F 93% 29.97 in 1.2 mi NE 3.5 mph - 0.02 in Snow Light Snow
5:21 AM 30.2 °F 25.4 °F 28.4 °F 93% 29.97 in 0.8 mi NE 4.6 mph - 0.03 in Snow Light Snow
5:42 AM 30.2 °F 24.3 °F 28.4 °F 93% 29.96 in 0.8 mi ENE 5.8 mph - 0.06 in Snow Light Snow
5:52 AM 30.0 °F 23.2 °F 28.0 °F 92% 30.01 in 0.8 mi ENE 6.9 mph - 0.07 in Snow Light Snow
6:12 AM 30.2 °F 21.9 °F 28.4 °F 93% 29.94 in 0.8 mi ENE 9.2 mph - 0.03 in Snow Light Snow
6:37 AM 30.2 °F 23.4 °F 26.6 °F 86% 29.96 in 1.0 mi ENE 6.9 mph - N/A Snow Light Snow
6:52 AM 28.9 °F 21.1 °F 27.0 °F 92% 30.00 in 0.8 mi ENE 8.1 mph - 0.07 in Snow Light Snow
7:10 AM 28.4 °F 20.4 °F 26.6 °F 93% 29.95 in 1.2 mi ENE 8.1 mph - 0.02 in Snow Light Snow
7:17 AM 28.4 °F 21.2 °F 26.6 °F 93% 29.95 in 2.0 mi ENE 6.9 mph - 0.02 in Snow Light Snow
7:41 AM 28.4 °F 20.4 °F 26.6 °F 93% 29.95 in 1.5 mi East 8.1 mph - 0.03 in Snow Light Snow
7:48 AM 28.4 °F 21.2 °F 26.6 °F 93% 29.95 in 1.2 mi East 6.9 mph - 0.03 in Snow Light Snow
7:52 AM 28.4 °F 20.4 °F 26.6 °F 93% 29.95 in 1.5 mi East 8.1 mph - N/A Snow Light Snow
8:10 AM 28.4 °F 21.2 °F 26.6 °F 93% 29.95 in 0.8 mi ENE 6.9 mph - 0.01 in Snow Light Snow
8:25 AM 28.4 °F 21.2 °F 26.6 °F 93% 29.95 in 1.0 mi ENE 6.9 mph - 0.02 in Snow Light Snow
8:36 AM 28.4 °F 22.2 °F 26.6 °F 93% 29.94 in 0.8 mi NE 5.8 mph - 0.02 in Snow Light Snow
8:52 AM 28.0 °F 20.0 °F 25.0 °F 88% 30.00 in 0.8 mi NE 8.1 mph - 0.03 in Snow Light Snow
9:06 AM 28.4 °F 18.5 °F 24.8 °F 86% 29.94 in 0.8 mi NE 11.5 mph - 0.00 in Snow Light Snow
9:52 AM 27.0 °F 17.3 °F 24.1 °F 89% 30.00 in 0.2 mi NNE 10.4 mph - 0.03 in Fog , Snow Light Snow
10:52 AM 26.1 °F 15.0 °F 23.0 °F 88% 30.03 in 0.2 mi NNE 12.7 mph - 0.03 in Fog , Snow Snow
11:05 AM 24.8 °F 13.4 °F 21.2 °F 86% 29.99 in 0.5 mi NNE 12.7 mph - 0.01 in Fog , Snow Snow
11:27 AM 26.6 °F 15.2 °F 21.2 °F 80% 29.98 in 0.2 mi North 13.8 mph - 0.02 in Fog , Snow Snow
11:43 AM 24.8 °F 11.1 °F 21.2 °F 86% 29.97 in 0.5 mi North 18.4 mph - 0.02 in Fog , Snow Light Snow
11:52 AM 25.0 °F 10.9 °F 21.0 °F 85% 30.02 in 0.5 mi NNE 19.6 mph - 0.03 in Fog , Snow Light Snow
12:04 PM 24.8 °F 11.9 °F 21.2 °F 86% 29.96 in 0.8 mi North 16.1 mph - 0.00 in Snow Light Snow
12:08 PM 24.8 °F 12.9 °F 21.2 °F 86% 29.96 in 0.8 mi North 13.8 mph - 0.00 in Snow Light Snow
12:25 PM 24.8 °F 11.5 °F 21.2 °F 86% 29.96 in 0.2 mi North 17.3 mph - 0.01 in Fog , Snow Snow
12:33 PM 24.8 °F 12.4 °F 21.2 °F 86% 29.96 in 0.2 mi North 15.0 mph - 0.01 in Fog , Snow Snow
12:52 PM 24.1 °F 9.4 °F 21.0 °F 88% 30.01 in 1.5 mi North 20.7 mph - 0.02 in Snow Light Snow
12:56 PM 24.8 °F 10.7 °F 19.4 °F 80% 29.95 in 1.8 mi North 19.6 mph - 0.00 in Snow Light Snow
1:03 PM 24.8 °F 11.5 °F 19.4 °F 80% 29.94 in 0.8 mi North 17.3 mph - 0.00 in Snow Light Snow
1:28 PM 23.0 °F 8.7 °F 19.4 °F 86% 29.93 in 1.5 mi NNE 18.4 mph - 0.02 in Snow Light Snow
1:37 PM 23.0 °F 8.7 °F 19.4 °F 86% 29.92 in 1.0 mi NNE 18.4 mph - 0.02 in Snow Light Snow
1:44 PM 23.0 °F 8.3 °F 19.4 °F 86% 29.93 in 0.8 mi North 19.6 mph - 0.02 in Snow Light Snow
1:50 PM 23.0 °F 9.6 °F 19.4 °F 86% 29.93 in 1.0 mi North 16.1 mph - 0.03 in Snow Light Snow
1:52 PM 23.0 °F 8.7 °F 19.0 °F 85% 30.00 in 1.0 mi North 18.4 mph - 0.03 in Snow Light Snow
2:01 PM 23.0 °F 8.7 °F 19.4 °F 86% 29.93 in 2.0 mi NNE 18.4 mph - 0.00 in Snow Light Snow
2:12 PM 21.2 °F 6.0 °F 17.6 °F 86% 29.93 in 4.0 mi North 19.6 mph - 0.00 in   Overcast
2:31 PM 23.0 °F 9.2 °F 17.6 °F 80% 29.93 in 4.0 mi North 17.3 mph - 0.00 in Snow Light Snow
2:41 PM 23.0 °F 9.2 °F 17.6 °F 80% 29.94 in 2.5 mi North 17.3 mph - 0.00 in Snow Light Snow
2:52 PM 23.0 °F 8.3 °F 18.0 °F 81% 30.01 in 2.5 mi North 19.6 mph - 0.00 in Snow Light Snow
2:57 PM 21.2 °F 6.0 °F 17.6 °F 86% 29.95 in 3.0 mi North 19.6 mph - 0.00 in Snow Light Snow
3:50 PM 21.2 °F 6.4 °F 17.6 °F 86% 29.97 in 4.0 mi North 18.4 mph - 0.00 in Snow Light Snow
3:52 PM 21.9 °F 6.9 °F 18.0 °F 85% 30.04 in 3.0 mi NNE 19.6 mph - 0.00 in Snow Light Snow
4:05 PM 21.2 °F 6.8 °F 17.6 °F 86% 29.97 in 2.0 mi North 17.3 mph - 0.00 in Snow Light Snow
4:14 PM 21.2 °F 7.3 °F 17.6 °F 86% 29.99 in 1.5 mi North 16.1 mph - 0.00 in Snow Light Snow
4:34 PM 21.2 °F 7.3 °F 17.6 °F 86% 29.98 in 1.8 mi NNE 16.1 mph - 0.00 in Snow Light Snow
4:41 PM 21.2 °F 7.8 °F 17.6 °F 86% 29.98 in 2.5 mi North 15.0 mph - 0.00 in Snow Light Snow
4:52 PM 21.0 °F 6.2 °F 18.0 °F 88% 30.06 in 2.0 mi North 18.4 mph - 0.00 in Snow Light Snow
4:59 PM 21.2 °F 7.3 °F 17.6 °F 86% 29.99 in 1.2 mi North 16.1 mph - 0.00 in Snow Light Snow
5:06 PM 19.4 °F 4.5 °F 17.6 °F 93% 29.98 in 1.2 mi North 17.3 mph - 0.00 in Snow Light Snow
5:13 PM 19.4 °F 5.5 °F 17.6 °F 93% 29.99 in 1.8 mi North 15.0 mph - 0.05 in Snow Light Snow
5:32 PM 19.4 °F 5.5 °F 17.6 °F 93% 30.00 in 1.5 mi NNE 15.0 mph - 0.05 in Snow Light Snow
5:52 PM 19.0 °F 5.0 °F 15.1 °F 85% 30.09 in 3.0 mi NNE 15.0 mph - 0.05 in Snow Light Snow
5:57 PM 17.6 °F 3.2 °F 15.8 °F 93% 30.01 in 3.0 mi North 15.0 mph - 0.00 in Snow Light Snow
6:24 PM 17.6 °F 3.2 °F 12.2 °F 79% 30.03 in 6.0 mi North 15.0 mph - 0.01 in   Scattered Clouds
6:52 PM 15.1 °F 2.5 °F 12.0 °F 88% 30.13 in 6.0 mi North 10.4 mph - 0.01 in   Scattered Clouds
7:02 PM 15.8 °F 2.7 °F 12.2 °F 86% 30.04 in 6.0 mi North 11.5 mph - N/A   Mostly Cloudy
7:18 PM 15.8 °F 5.1 °F 12.2 °F 86% 30.05 in 6.0 mi North 8.1 mph - 0.23 in   Overcast
7:39 PM 15.8 °F 2.7 °F 12.2 °F 86% 30.06 in 6.0 mi North 11.5 mph - 0.23 in   Overcast
7:52 PM 17.1 °F 3.6 °F 14.0 °F 88% 30.14 in 6.0 mi North 12.7 mph - 0.42 in   Overcast
8:13 PM 17.6 °F 6.4 °F 14.0 °F 86% 30.07 in 6.0 mi North 9.2 mph - N/A   Overcast
8:52 PM 18.0 °F 4.2 °F 14.0 °F 84% 30.17 in 4.0 mi North 13.8 mph - 0.03 in Snow Light Snow
9:09 PM 17.6 °F 5.0 °F 14.0 °F 86% 30.08 in 2.5 mi North 11.5 mph - 0.02 in Snow Light Snow
9:22 PM 17.6 °F 5.7 °F 14.0 °F 86% 30.09 in 3.0 mi North 10.4 mph - 0.02 in Snow Light Snow
9:52 PM 17.1 °F 5.8 °F 14.0 °F 88% 30.19 in 4.0 mi North 9.2 mph - 0.03 in Snow Light Snow
10:52 PM 16.0 °F 4.4 °F 12.9 °F 88% 30.21 in 5.0 mi North 9.2 mph - 0.11 in   Overcast
11:08 PM 15.8 °F 2.7 °F 12.2 °F 86% 30.12 in 4.0 mi North 11.5 mph - 0.00 in Snow Light Snow
11:17 PM 15.8 °F 2.7 °F 12.2 °F 86% 30.11 in 3.0 mi North 11.5 mph - 0.00 in Snow Light Snow
11:20 PM 15.8 °F 3.4 °F 12.2 °F 86% 30.12 in 2.5 mi North 10.4 mph - 0.00 in Snow Light Snow
11:48 PM 15.8 °F 4.2 °F 12.2 °F 86% 30.12 in 3.0 mi North 9.2 mph - 0.00 in Snow Light Snow
11:52 PM 15.1 °F 4.2 °F 12.0 °F 88% 30.22 in 3.0 mi North 8.1 mph - 0.00 in Snow Light Snow